QPF
0.00 0.00 0.00 0.00 0.00 0.00 0.00 0.00 0.00 0.00 0.00 0.00 0.00 0.00 0.00 0.00 0.00 0.00 0.00 0.00 0.00 0.00 0.00 0.00 0.00 0.00 0.00 0.00 0.00 0.00 0.00 0.00 0.00 0.00 0.00 0.00 0.00 0.00 0.00 0.00 0.00 0.00
0.00 0.00 0.00 0.00 0.00 0.00 0.00 0.00 0.00 0.00 0.00 0.00 0.00 0.00 0.00 0.00 0.00 0.00 0.00 0.00 0.00 0.00 0.00 0.00 0.00 0.00 0.00 0.00 0.00 0.00 0.00 0.00 0.00 0.00 0.00 0.00 0.00 0.00 0.00 0.00 0.00 0.00
0.00 0.00 0.00 0.00 0.00 0.00 0.00 0.00 0.00 0.00 0.00 0.00 0.00 0.00 0.00 0.00 0.00 0.00 0.00 0.00 0.00 0.00 0.00 0.00 0.00 0.00 0.00 0.00 0.00 0.00 0.00 0.00 0.00 0.00 0.00 0.00 0.00 0.00 0.00 0.00 0.00 0.00
0.00 0.00 0.00 0.00 0.00 0.00 0.00 0.00 0.00 0.00 0.00 0.00 0.00 0.00 0.00 0.00 0.00 0.00 0.00 0.00 0.00 0.00 0.00 0.00 0.00 0.00 0.00 0.00 0.00 0.00 0.00 0.00 0.00 0.00 0.00 0.00 0.00 0.00 0.00 0.00 0.00 0.00
0.00 0.00 0.00 0.00 0.00 0.00 0.00 0.00 0.00 0.00 0.00 0.00 0.00 0.00 0.00 0.00 0.00 0.00 0.00 0.00 0.00 0.00 0.00 0.00 0.00 0.00 0.00 0.00 0.00 0.00 0.00 0.00 0.00 0.00 0.00 0.00 0.00 0.00 0.00 0.00 0.00 0.00
0.00 0.00 0.00 0.00 0.00 0.00 0.00 0.00 0.00 0.00 0.00 0.00 0.00 0.00 0.00 0.00 0.00 0.00 0.00 0.00 0.00 0.00 0.00 0.00 0.00 0.00 0.00 0.00 0.00 0.00 0.00 0.00 0.00 0.00 0.00 0.00 0.00 0.00 0.00 0.00 0.00 0.00
0.00 0.00 0.00 0.00 0.00 0.00 0.00 0.00 0.00 0.00 0.00 0.00 0.00 0.00 0.00 0.00 0.00 0.00 0.00 0.00 0.00 0.00 0.00 0.00 0.00 0.00 0.00 0.00 0.00 0.00 0.00 0.00 0.00 0.00 0.00 0.00 0.00 0.00 0.00 0.00 0.00 0.00
0.00 0.00 0.00 0.00 0.00 0.00 0.00 0.00 0.00 0.00 0.00 0.00 0.00 0.00 0.00 0.00 0.00 0.00 0.00 0.00 0.00 0.00 0.00 0.01 0.01 0.01 0.01 0.01 0.01 0.01 0.01 0.00 0.00 0.00 0.00 0.00 0.00 0.00 0.00 0.00 0.00 0.00
0.00 0.00 0.00 0.00 0.00 0.00 0.00 0.00 0.00 0.00 0.00 0.00 0.00 0.00 0.00 0.00 0.00 0.00 0.00 0.00 0.00 0.00 0.00 0.00 0.01 0.01 0.01 0.01 0.02 0.02 0.02 0.02 0.02 0.02 0.01 0.01 0.01 0.00 0.00 0.00 0.00 0.00
0.00 0.00 0.00 0.00 0.00 0.00 0.00 0.00 0.00 0.00 0.00 0.00 0.00 0.00 0.00 0.00 0.00 0.00 0.00 0.00 0.00 0.00 0.00 0.00 0.00 0.00 0.01 0.01 0.01 0.02 0.02 0.03 0.03 0.03 0.03 0.03 0.03 0.02 0.02 0.01 0.01 0.01
0.00 0.00 0.00 0.00 0.00 0.00 0.00 0.00 0.00 0.00 0.00 0.00 0.00 0.00 0.00 0.00 0.00 0.00 0.00 0.00 0.00 0.00 0.00 0.00 0.00 0.00 0.00 0.00 0.00 0.01 0.01 0.01 0.02 0.03 0.03 0.03 0.03 0.03 0.03 0.04 0.04 0.04
0.00 0.00 0.00 0.00 0.00 0.00 0.00 0.00 0.00 0.00 0.00 0.00 0.00 0.00 0.00 0.00 0.00 0.00 0.00 0.00 0.00 0.00 0.00 0.00 0.00 0.00 0.00 0.00 0.00 0.00 0.00 0.00 0.01 0.01 0.01 0.02 0.02 0.03 0.03 0.04 0.04 0.04
0.00 0.00 0.00 0.00 0.00 0.00 0.00 0.00 0.00 0.00 0.00 0.00 0.00 0.00 0.00 0.00 0.00 0.00 0.00 0.00 0.00 0.00 0.00 0.00 0.00 0.00 0.00 0.00 0.00 0.00 0.00 0.00 0.00 0.00 0.00 0.01 0.01 0.01 0.02 0.02 0.03 0.03
0.00 0.00 0.00 0.00 0.00 0.00 0.00 0.00 0.00 0.00 0.00 0.00 0.00 0.00 0.00 0.00 0.00 0.00 0.00 0.00 0.00 0.00 0.00 0.00 0.00 0.00 0.00 0.00 0.00 0.00 0.00 0.00 0.00 0.00 0.00 0.00 0.00 0.00 0.00 0.01 0.01 0.01
0.00 0.00 0.00 0.00 0.00 0.00 0.00 0.00 0.00 0.00 0.00 0.00 0.00 0.00 0.00 0.00 0.00 0.00 0.00 0.00 0.00 0.00 0.00 0.00 0.00 0.00 0.00 0.00 0.00 0.00 0.00 0.00 0.00 0.01 0.01 0.00 0.01 0.00 0.00 0.00 0.00 0.01
0.00 0.00 0.00 0.00 0.00 0.00 0.00 0.00 0.00 0.00 0.00 0.00 0.00 0.00 0.00 0.00 0.00 0.00 0.00 0.00 0.00 0.00 0.00 0.00 0.00 0.00 0.00 0.00 0.00 0.00 0.00 0.00 0.01 0.00 0.00 0.00 0.00 0.00 0.00 0.00 0.00 0.00
0.00 0.00 0.00 0.00 0.00 0.00 0.00 0.00 0.00 0.00 0.00 0.00 0.00 0.00 0.00 0.00 0.00 0.00 0.00 0.00 0.00 0.00 0.00 0.00 0.00 0.00 0.00 0.00 0.00 0.00 0.00 0.00 0.01 0.00 0.00 0.00 0.00 0.00 0.00 0.00 0.00 0.00
0.00 0.00 0.00 0.00 0.00 0.00 0.00 0.00 0.00 0.00 0.00 0.00 0.00 0.00 0.00 0.00 0.00 0.00 0.00 0.00 0.00 0.00 0.00 0.00 0.00 0.00 0.00 0.00 0.00 0.01 0.01 0.03 0.01 0.01 0.01 0.00 0.00 0.00 0.00 0.00 0.00 0.00
0.00 0.00 0.00 0.00 0.00 0.00 0.00 0.00 0.00 0.00 0.00 0.00 0.00 0.00 0.00 0.00 0.00 0.00 0.00 0.00 0.00 0.00 0.00 0.00 0.00 0.00 0.00 0.00 0.00 0.01 0.01 0.02 0.01 0.01 0.00 0.00 0.00 0.00 0.00 0.00 0.00 0.00
0.01 0.00 0.00 0.00 0.00 0.00 0.00 0.00 0.00 0.00 0.00 0.00 0.00 0.00 0.00 0.00 0.00 0.00 0.00 0.00 0.00 0.00 0.00 0.00 0.00 0.00 0.00 0.00 0.00 0.00 0.01 0.01 0.01 0.00 0.00 0.00 0.00 0.00 0.00 0.00 0.00 0.00
0.01 0.00 0.00 0.00 0.00 0.00 0.00 0.00 0.00 0.00 0.00 0.00 0.00 0.00 0.00 0.00 0.00 0.00 0.00 0.00 0.00 0.00 0.00 0.00 0.00 0.00 0.00 0.00 0.00 0.00 0.01 0.00 0.00 0.00 0.00 0.00 0.00 0.00 0.00 0.00 0.00 0.00
0.00 0.00 0.00 0.00 0.00 0.00 0.00 0.00 0.00 0.00 0.00 0.00 0.00 0.00 0.00 0.00 0.00 0.00 0.00 0.00 0.00 0.00 0.00 0.00 0.00 0.00 0.00 0.00 0.00 0.00 0.01 0.00 0.00 0.00 0.00 0.00 0.00 0.00 0.00 0.00 0.00 0.00
0.01 0.00 0.00 0.00 0.00 0.00 0.00 0.00 0.00 0.00 0.00 0.00 0.00 0.00 0.00 0.00 0.00 0.00 0.01 0.00 0.01 0.01 0.00 0.00 0.00 0.00 0.00 0.00 0.00 0.00 0.01 0.00 0.00 0.00 0.00 0.00 0.00 0.00 0.00 0.00 0.00 0.00
0.00 0.00 0.00 0.00 0.00 0.00 0.00 0.00 0.00 0.00 0.00 0.00 0.00 0.00 0.00 0.00 0.00 0.01 0.01 0.01 0.01 0.01 0.01 0.00 0.00 0.00 0.00 0.00 0.00 0.00 0.01 0.00 0.00 0.00 0.00 0.00 0.00 0.00 0.00 0.00 0.00 0.00
0.00 0.00 0.00 0.00 0.00 0.00 0.00 0.00 0.00 0.00 0.00 0.01 0.01 0.01 0.01 0.01 0.01 0.01 0.01 0.01 0.01 0.01 0.00 0.00 0.00 0.00 0.00 0.00 0.00 0.00 0.01 0.01 0.00 0.00 0.00 0.00 0.00 0.00 0.00 0.00 0.00 0.00
0.00 0.00 0.00 0.00 0.00 0.00 0.00 0.00 0.00 0.00 0.01 0.01 0.01 0.01 0.01 0.01 0.01 0.01 0.01 0.01 0.01 0.01 0.00 0.00 0.00 0.00 0.00 0.00 0.00 0.00 0.00 0.01 0.01 0.01 0.01 0.00 0.01 0.00 0.00 0.00 0.00 0.00
MSLP
1025.63 1025.47 1025.31 1025.03 1024.79 1024.59 1024.47 1024.23 1023.83 1023.47 1023.03 1022.67 1022.39 1022.07 1021.91 1021.59 1021.27 1021.07 1020.79 1020.35 1020.03 1019.71 1019.43 1019.19 1018.95 1018.79 1018.67 1018.59 1018.59 1018.63 1018.67 1018.75 1018.83 1018.95 1019.07 1019.19 1019.27 1019.31 1019.43 1019.47 1019.59 1019.63
1025.83 1025.79 1025.75 1025.67 1025.43 1025.19 1025.03 1024.67 1024.23 1023.87 1023.51 1023.23 1022.95 1022.67 1022.39 1021.99 1021.63 1021.39 1021.11 1020.75 1020.39 1020.07 1019.71 1019.35 1019.03 1018.79 1018.63 1018.51 1018.43 1018.43 1018.43 1018.43 1018.43 1018.47 1018.59 1018.67 1018.71 1018.79 1018.91 1018.95 1019.11 1019.19
1026.03 1025.95 1025.87 1025.83 1025.67 1025.43 1025.15 1024.83 1024.47 1024.19 1023.99 1023.67 1023.43 1023.19 1022.87 1022.51 1022.15 1021.87 1021.51 1021.19 1020.83 1020.51 1020.15 1019.83 1019.43 1019.07 1018.71 1018.47 1018.31 1018.27 1018.23 1018.15 1018.11 1018.03 1018.07 1018.15 1018.23 1018.35 1018.39 1018.55 1018.67 1018.75
1026.15 1025.95 1025.87 1025.87 1025.79 1025.63 1025.35 1024.99 1024.67 1024.43 1024.23 1023.95 1023.67 1023.43 1023.15 1022.79 1022.51 1022.23 1021.95 1021.67 1021.35 1020.99 1020.63 1020.27 1019.91 1019.55 1019.19 1018.83 1018.47 1018.23 1018.11 1017.99 1017.95 1017.87 1017.75 1017.71 1017.75 1017.79 1017.91 1018.03 1018.19 1018.27
1026.07 1025.91 1025.75 1025.67 1025.55 1025.55 1025.43 1025.27 1024.91 1024.67 1024.51 1024.27 1024.03 1023.79 1023.55 1023.15 1022.87 1022.63 1022.31 1022.03 1021.79 1021.47 1021.11 1020.75 1020.31 1020.03 1019.67 1019.39 1019.07 1018.67 1018.23 1018.07 1017.91 1017.83 1017.79 1017.71 1017.63 1017.59 1017.55 1017.55 1017.59 1017.67
1025.87 1025.71 1025.63 1025.39 1025.39 1025.35 1025.31 1025.23 1025.07 1024.91 1024.71 1024.47 1024.27 1024.07 1023.83 1023.51 1023.31 1022.99 1022.63 1022.31 1022.03 1021.79 1021.43 1021.07 1020.75 1020.43 1020.15 1019.83 1019.51 1019.23 1018.99 1018.63 1018.19 1017.99 1017.87 1017.79 1017.67 1017.59 1017.59 1017.63 1017.63 1017.63
1025.71 1025.55 1025.51 1025.47 1025.59 1025.55 1025.47 1025.35 1025.19 1025.03 1024.83 1024.59 1024.31 1024.15 1023.87 1023.67 1023.35 1023.07 1022.79 1022.55 1022.27 1021.99 1021.63 1021.31 1021.03 1020.79 1020.51 1020.23 1019.95 1019.71 1019.47 1019.19 1018.91 1018.63 1018.35 1017.99 1017.79 1017.71 1017.67 1017.67 1017.67 1017.71
1025.75 1025.67 1025.55 1025.47 1025.55 1025.55 1025.55 1025.47 1025.35 1025.15 1024.91 1024.63 1024.39 1024.19 1024.07 1023.87 1023.63 1023.27 1022.99 1022.71 1022.47 1022.19 1021.87 1021.59 1021.35 1021.15 1020.87 1020.63 1020.43 1020.11 1019.83 1019.55 1019.35 1019.15 1018.99 1018.79 1018.47 1018.23 1017.95 1017.83 1017.79 1017.79
1025.67 1025.59 1025.43 1025.39 1025.39 1025.47 1025.59 1025.59 1025.47 1025.23 1024.99 1024.75 1024.43 1024.23 1024.15 1024.07 1023.83 1023.59 1023.23 1022.95 1022.71 1022.39 1022.07 1021.83 1021.59 1021.35 1021.11 1020.91 1020.75 1020.51 1020.23 1019.95 1019.71 1019.55 1019.39 1019.19 1019.03 1018.87 1018.71 1018.51 1018.39 1018.27
1025.55 1025.43 1025.39 1025.39 1025.47 1025.43 1025.55 1025.59 1025.55 1025.39 1025.11 1024.87 1024.55 1024.31 1024.23 1024.11 1024.03 1023.75 1023.43 1023.23 1022.99 1022.71 1022.39 1022.11 1021.87 1021.63 1021.39 1021.15 1020.91 1020.63 1020.43 1020.23 1019.99 1019.83 1019.59 1019.39 1019.23 1019.07 1018.91 1018.79 1018.67 1018.59
1025.47 1025.35 1025.27 1025.23 1025.31 1025.35 1025.47 1025.59 1025.63 1025.47 1025.23 1024.95 1024.67 1024.47 1024.27 1024.19 1024.15 1023.95 1023.71 1023.47 1023.23 1022.99 1022.71 1022.47 1022.27 1022.03 1021.79 1021.47 1021.15 1020.83 1020.63 1020.43 1020.27 1020.07 1019.87 1019.67 1019.47 1019.27 1019.07 1018.95 1018.83 1018.79
1025.23 1025.19 1025.11 1025.11 1025.11 1025.15 1025.23 1025.43 1025.55 1025.51 1025.31 1025.03 1024.83 1024.63 1024.47 1024.35 1024.27 1024.19 1023.99 1023.67 1023.43 1023.23 1023.03 1022.83 1022.63 1022.47 1022.23 1021.79 1021.43 1021.27 1021.11 1020.91 1020.63 1020.27 1019.95 1019.63 1019.43 1019.31 1019.15 1019.07 1019.03 1018.95
1024.99 1024.95 1024.95 1024.99 1025.07 1025.23 1025.31 1025.43 1025.51 1025.47 1025.31 1025.11 1024.87 1024.83 1024.71 1024.59 1024.47 1024.35 1024.23 1023.95 1023.75 1023.51 1023.31 1023.11 1023.03 1022.87 1022.55 1022.19 1022.03 1021.83 1021.55 1021.11 1020.63 1020.23 1019.87 1019.59 1019.39 1019.35 1019.43 1019.51 1019.51 1019.59
1024.75 1024.75 1024.79 1024.83 1024.95 1025.03 1025.19 1025.39 1025.47 1025.39 1025.27 1025.15 1025.03 1024.95 1024.83 1024.75 1024.67 1024.51 1024.39 1024.27 1024.15 1023.87 1023.59 1023.43 1023.35 1023.15 1022.79 1022.67 1022.43 1022.03 1021.51 1021.07 1020.71 1020.31 1020.15 1019.99 1019.83 1019.87 1019.87 1019.87 1019.95 1020.03
1024.39 1024.47 1024.55 1024.63 1024.75 1024.99 1025.19 1025.35 1025.39 1025.35 1025.27 1025.19 1025.11 1025.07 1024.91 1024.79 1024.71 1024.59 1024.51 1024.47 1024.31 1024.11 1023.91 1023.83 1023.71 1023.43 1023.11 1022.95 1022.51 1021.87 1021.43 1021.15 1020.83 1020.55 1020.39 1020.31 1020.27 1020.31 1020.27 1020.23 1020.31 1020.35
1023.87 1024.11 1024.27 1024.39 1024.63 1024.91 1025.11 1025.27 1025.35 1025.35 1025.27 1025.23 1025.19 1025.11 1025.03 1024.95 1024.87 1024.71 1024.67 1024.59 1024.43 1024.27 1024.19 1024.15 1023.95 1023.59 1023.31 1022.75 1022.11 1021.71 1021.39 1021.15 1020.91 1020.75 1020.67 1020.59 1020.71 1020.71 1020.59 1020.55 1020.63 1020.63
1023.51 1023.75 1023.99 1024.23 1024.43 1024.75 1025.07 1025.27 1025.39 1025.39 1025.35 1025.31 1025.23 1025.19 1025.19 1025.11 1024.95 1024.83 1024.71 1024.59 1024.51 1024.43 1024.47 1024.35 1024.07 1023.75 1023.23 1022.47 1021.95 1021.47 1021.19 1021.03 1021.07 1021.15 1020.99 1020.91 1021.03 1021.07 1021.11 1021.07 1020.99 1020.95
1023.23 1023.47 1023.79 1024.07 1024.35 1024.71 1025.03 1025.31 1025.43 1025.47 1025.43 1025.39 1025.31 1025.27 1025.23 1025.15 1025.07 1024.87 1024.71 1024.59 1024.51 1024.59 1024.59 1024.47 1024.19 1023.79 1023.07 1022.43 1021.91 1021.51 1021.15 1021.27 1021.39 1021.43 1021.27 1021.27 1021.39 1021.43 1021.47 1021.43 1021.31 1021.27
1022.99 1023.31 1023.63 1023.99 1024.39 1024.79 1025.11 1025.35 1025.51 1025.51 1025.51 1025.47 1025.43 1025.35 1025.27 1025.23 1024.99 1024.79 1024.67 1024.51 1024.47 1024.55 1024.59 1024.47 1024.31 1023.87 1023.15 1022.47 1022.07 1021.75 1021.39 1021.43 1021.71 1021.63 1021.51 1021.59 1021.59 1021.59 1021.55 1021.47 1021.39 1021.47
1022.91 1023.23 1023.63 1023.99 1024.39 1024.79 1025.15 1025.43 1025.55 1025.59 1025.55 1025.47 1025.43 1025.39 1025.27 1025.07 1024.87 1024.71 1024.51 1024.39 1024.43 1024.51 1024.59 1024.51 1024.35 1023.91 1023.11 1022.59 1022.27 1021.91 1021.59 1021.67 1021.99 1021.91 1021.75 1021.71 1021.71 1021.63 1021.55 1021.47 1021.55 1021.79
1023.03 1023.27 1023.59 1024.03 1024.47 1024.87 1025.19 1025.47 1025.59 1025.59 1025.59 1025.51 1025.47 1025.39 1025.23 1025.07 1024.87 1024.71 1024.47 1024.31 1024.35 1024.43 1024.59 1024.55 1024.39 1023.71 1023.19 1022.75 1022.35 1021.99 1021.75 1021.99 1022.15 1022.11 1021.95 1021.79 1021.75 1021.71 1021.59 1021.51 1021.71 1021.91
1023.31 1023.55 1023.87 1024.23 1024.67 1024.99 1025.31 1025.51 1025.63 1025.59 1025.59 1025.47 1025.35 1025.27 1025.11 1024.95 1024.83 1024.63 1024.43 1024.31 1024.27 1024.43 1024.55 1024.59 1024.35 1023.83 1023.39 1022.91 1022.51 1022.11 1021.95 1022.35 1022.31 1022.23 1022.03 1021.95 1021.87 1021.75 1021.59 1021.59 1021.75 1021.99
1023.67 1024.03 1024.31 1024.63 1024.87 1025.19 1025.43 1025.59 1025.59 1025.55 1025.47 1025.35 1025.31 1025.23 1025.11 1025.03 1024.91 1024.71 1024.43 1024.27 1024.23 1024.43 1024.59 1024.55 1024.47 1024.15 1023.63 1023.11 1022.67 1022.27 1022.23 1022.47 1022.47 1022.35 1022.23 1022.11 1021.99 1021.75 1021.63 1021.71 1021.83 1022.11
1023.95 1024.23 1024.59 1024.75 1024.95 1025.27 1025.47 1025.59 1025.55 1025.51 1025.47 1025.27 1025.27 1025.19 1025.19 1025.11 1024.91 1024.71 1024.35 1024.15 1024.19 1024.43 1024.51 1024.59 1024.59 1024.39 1023.91 1023.39 1022.87 1022.47 1022.31 1022.55 1022.55 1022.47 1022.35 1022.19 1022.07 1021.87 1021.75 1022.03 1022.23 1022.27
1024.27 1024.55 1024.71 1024.87 1025.07 1025.31 1025.47 1025.59 1025.59 1025.55 1025.43 1025.39 1025.31 1025.19 1025.11 1024.99 1024.75 1024.43 1024.27 1024.19 1024.19 1024.39 1024.31 1024.55 1024.67 1024.55 1024.19 1023.59 1023.15 1022.71 1022.47 1022.55 1022.55 1022.51 1022.43 1022.35 1022.39 1022.47 1022.67 1022.87 1023.07 1023.11
1024.51 1024.71 1024.83 1024.99 1025.23 1025.39 1025.51 1025.55 1025.55 1025.55 1025.47 1025.35 1025.31 1025.27 1025.23 1024.99 1024.67 1024.63 1024.59 1024.43 1024.23 1024.19 1024.23 1024.43 1024.59 1024.55 1024.35 1023.75 1023.35 1022.95 1022.47 1022.39 1022.71 1023.03 1023.31 1023.47 1023.43 1023.39 1023.51 1023.63 1023.75 1023.91
Thickness
5318 5318 5319 5320 5321 5321 5321 5323 5325 5327 5330 5333 5336 5338 5339 5340 5343 5344 5347 5349 5353 5355 5358 5359 5361 5364 5365 5366 5367 5367 5368 5369 5369 5368 5368 5368 5370 5370 5369 5370 5369 5369
5305 5305 5304 5305 5305 5306 5306 5308 5310 5313 5315 5316 5318 5321 5323 5325 5328 5330 5332 5336 5338 5341 5344 5347 5349 5352 5354 5355 5356 5358 5359 5360 5361 5361 5360 5361 5362 5363 5363 5363 5363 5362
5293 5292 5292 5291 5292 5293 5294 5295 5297 5299 5300 5301 5303 5305 5306 5309 5312 5313 5316 5321 5323 5326 5329 5332 5335 5338 5341 5344 5346 5348 5350 5351 5352 5353 5352 5354 5355 5355 5356 5355 5355 5356
5280 5281 5280 5279 5279 5280 5281 5282 5284 5286 5287 5288 5289 5290 5292 5294 5296 5297 5300 5303 5306 5310 5313 5316 5320 5323 5326 5330 5333 5336 5339 5340 5342 5342 5344 5346 5346 5347 5348 5348 5348 5349
5269 5269 5269 5269 5269 5268 5268 5269 5270 5272 5273 5274 5275 5276 5278 5280 5282 5283 5285 5288 5291 5293 5297 5300 5305 5308 5311 5314 5318 5321 5325 5328 5330 5331 5333 5335 5336 5337 5338 5339 5340 5341
5258 5258 5257 5258 5259 5257 5255 5256 5257 5258 5259 5261 5262 5262 5264 5267 5268 5270 5272 5274 5276 5278 5282 5285 5290 5293 5296 5299 5302 5306 5309 5312 5315 5318 5320 5323 5324 5326 5327 5327 5329 5330
5245 5246 5244 5243 5245 5243 5242 5242 5243 5244 5245 5247 5249 5250 5251 5254 5255 5257 5260 5261 5263 5265 5267 5271 5275 5278 5281 5284 5288 5291 5293 5296 5299 5302 5306 5309 5311 5313 5314 5315 5317 5318
5230 5232 5231 5230 5231 5230 5227 5228 5229 5230 5232 5234 5236 5237 5238 5240 5242 5244 5246 5248 5250 5252 5254 5257 5260 5263 5265 5269 5273 5276 5279 5282 5285 5288 5290 5293 5296 5298 5300 5301 5304 5306
5215 5216 5217 5217 5217 5216 5214 5212 5214 5215 5217 5219 5222 5224 5225 5226 5228 5230 5232 5234 5236 5238 5241 5244 5246 5249 5251 5254 5257 5260 5264 5267 5271 5273 5276 5279 5281 5283 5285 5287 5289 5291
5201 5200 5201 5201 5202 5202 5200 5197 5198 5200 5201 5204 5207 5210 5211 5212 5213 5216 5219 5221 5222 5224 5228 5230 5233 5236 5237 5240 5243 5246 5250 5254 5257 5259 5262 5265 5267 5269 5271 5273 5275 5277
5187 5185 5185 5186 5186 5187 5185 5183 5182 5184 5186 5189 5191 5194 5196 5197 5198 5201 5204 5207 5209 5211 5213 5216 5219 5222 5224 5226 5230 5233 5237 5239 5241 5244 5248 5251 5253 5256 5258 5260 5262 5264
5173 5172 5172 5171 5171 5171 5171 5169 5168 5168 5170 5173 5176 5178 5180 5182 5183 5185 5189 5192 5195 5197 5199 5202 5204 5206 5209 5213 5217 5220 5222 5224 5228 5231 5235 5239 5241 5243 5246 5247 5249 5250
5161 5160 5159 5158 5156 5155 5155 5154 5154 5154 5155 5157 5160 5162 5164 5166 5168 5170 5173 5176 5179 5182 5185 5188 5190 5191 5195 5199 5202 5204 5207 5211 5216 5220 5224 5227 5229 5231 5232 5234 5235 5235
5150 5148 5147 5146 5143 5141 5140 5140 5140 5140 5141 5142 5144 5146 5149 5151 5154 5156 5158 5161 5163 5166 5171 5173 5175 5178 5181 5185 5187 5191 5195 5200 5204 5208 5211 5214 5216 5218 5218 5219 5220 5220
5138 5136 5135 5133 5131 5127 5125 5125 5124 5125 5127 5128 5129 5131 5134 5136 5139 5142 5144 5146 5148 5152 5155 5158 5161 5164 5167 5171 5175 5179 5184 5188 5192 5196 5199 5200 5202 5204 5205 5206 5206 5206
5126 5124 5122 5120 5118 5113 5110 5109 5110 5110 5112 5114 5115 5116 5118 5121 5124 5127 5130 5132 5135 5138 5140 5143 5147 5150 5154 5159 5164 5169 5173 5176 5180 5183 5186 5188 5190 5191 5191 5192 5192 5191
5116 5113 5110 5107 5104 5100 5097 5094 5094 5095 5096 5098 5100 5101 5103 5105 5109 5112 5115 5118 5121 5123 5125 5129 5133 5137 5142 5148 5153 5158 5161 5165 5168 5171 5174 5176 5177 5177 5176 5176 5176 5178
5106 5104 5100 5095 5091 5088 5084 5081 5080 5080 5081 5083 5085 5086 5088 5090 5094 5097 5100 5103 5107 5109 5111 5115 5119 5124 5130 5136 5142 5146 5150 5153 5156 5159 5161 5162 5162 5161 5161 5162 5165 5167
5095 5094 5090 5085 5081 5076 5073 5070 5068 5068 5068 5069 5070 5072 5074 5076 5079 5084 5087 5090 5092 5094 5097 5101 5105 5110 5117 5124 5129 5133 5136 5142 5145 5147 5147 5147 5147 5147 5149 5152 5155 5156
5084 5082 5079 5074 5070 5066 5062 5059 5057 5056 5057 5057 5058 5059 5061 5064 5067 5071 5074 5077 5080 5082 5084 5087 5092 5098 5105 5111 5116 5120 5125 5130 5133 5132 5133 5134 5136 5137 5139 5141 5142 5142
5073 5071 5066 5062 5058 5055 5051 5048 5046 5045 5046 5046 5048 5049 5051 5053 5056 5060 5063 5066 5069 5071 5073 5076 5081 5086 5093 5099 5104 5108 5114 5118 5118 5119 5121 5124 5124 5126 5128 5130 5131 5130
5062 5059 5055 5050 5046 5043 5041 5038 5036 5036 5036 5036 5038 5040 5042 5044 5047 5050 5054 5057 5059 5061 5064 5066 5071 5076 5082 5088 5093 5099 5104 5105 5104 5107 5112 5113 5113 5115 5117 5118 5120 5119
5051 5047 5044 5039 5036 5033 5031 5029 5027 5027 5028 5029 5030 5031 5033 5036 5038 5041 5045 5049 5051 5053 5056 5058 5062 5067 5072 5078 5083 5090 5094 5093 5093 5097 5101 5102 5103 5105 5107 5108 5109 5109
5040 5036 5033 5030 5028 5024 5022 5020 5020 5019 5020 5021 5022 5024 5025 5028 5031 5035 5039 5042 5045 5047 5049 5051 5054 5058 5063 5069 5074 5080 5084 5084 5085 5088 5090 5091 5092 5094 5096 5098 5098 5098
5029 5027 5024 5022 5019 5017 5014 5013 5013 5012 5013 5014 5015 5017 5019 5021 5025 5029 5033 5036 5038 5040 5042 5044 5046 5050 5055 5060 5065 5070 5075 5077 5079 5080 5079 5079 5080 5082 5084 5085 5085 5085
5021 5019 5017 5014 5012 5010 5008 5007 5006 5006 5007 5008 5010 5011 5013 5016 5020 5023 5026 5029 5032 5035 5037 5038 5040 5043 5046 5051 5056 5061 5068 5071 5071 5068 5065 5066 5068 5070 5072 5073 5073 5072